Retour au catalogue

RS-30

YUBELEINY

ActifRadio amateurPO
NORAD 32953·PAYLOAD·🇷🇺 Russia

Lancé May 23, 2008 depuis Plesetsk Cosmodrome

Loading…

Prochains Passages (prochaines 24 heures)

TLE

FraisSource: AMSAT

Époque: Sep 14, 2026, 14:09 UTC

1 32953U 08025A   26257.59011274  .00000082  00000-0  51836-3 0  9994
2 32953  82.5024 299.8381 0020694 115.6735 244.6485 12.43183200830800

Suivez RS-30 en temps réel avec AllMySat

Download on the App Store